Wind_Speed
38 37 35 31 33 35 34 31 30 30 30 30 31 30 31 29 25 25 23 22 21 18 21 19 21 19 18 18 17 17 15 17 15 15 16 16 17 16 17 17 18 19 19 21
38 37 36 36 36 35 33 32 30 30 30 30 30 28 31 31 28 26 26 25 25 22 24 24 22 20 19 20 20 20 21 21 19 17 19 19 20 21 22 22 22 22 23 23
38 37 37 36 36 36 34 32 32 32 32 32 31 28 29 30 29 27 27 29 28 26 26 26 24 24 24 23 24 24 23 23 24 25 24 24 23 23 25 27 28 28 29 29
40 39 36 36 37 37 34 33 33 34 34 33 32 30 28 30 30 29 31 30 30 29 28 29 29 29 28 28 28 27 27 27 28 29 30 29 28 28 30 30 31 32 33 34
38 37 37 37 36 37 36 36 35 35 35 34 31 33 25 27 28 33 33 33 32 33 32 32 33 33 33 33 32 32 32 32 32 32 33 34 34 33 33 35 36 37 37 37
43 42 40 38 38 38 38 37 37 37 35 34 31 33 28 26 28 31 32 33 33 35 36 36 37 37 37 37 36 37 37 37 37 37 37 38 38 38 39 40 42 42 41 42
45 44 42 42 41 40 40 39 38 37 37 35 34 33 32 31 31 30 31 32 35 36 39 40 40 40 40 41 41 42 42 43 43 42 42 42 43 43 44 45 46 46 46 46
50 49 46 44 41 40 41 39 40 39 38 38 38 35 35 38 35 36 36 36 36 39 40 42 44 44 45 45 47 47 47 47 48 48 48 48 48 48 49 48 49 48 48 48
55 53 50 48 47 46 45 43 42 42 42 42 41 39 38 39 42 40 40 40 40 41 43 45 47 48 48 49 49 49 50 50 50 50 51 51 51 50 51 50 49 50 49 49
57 54 53 52 52 52 51 49 48 47 47 46 45 44 44 44 46 48 45 43 43 45 45 46 48 50 51 52 51 52 53 53 52 53 52 52 53 53 51 49 49 51 50 49
58 58 58 57 57 55 55 54 52 51 51 51 50 49 50 51 50 49 51 50 49 48 48 49 50 48 49 50 51 51 52 52 52 53 53 53 52 51 50 49 48 48 48 48
58 60 60 59 57 57 57 57 57 57 55 54 54 55 55 56 56 55 55 55 55 53 53 52 52 53 53 53 54 55 55 54 55 55 55 55 53 52 51 50 51 50 49 50
59 63 62 62 63 63 63 61 60 60 59 59 59 58 60 59 59 59 59 60 59 59 58 58 57 57 55 56 58 58 58 57 58 58 59 58 56 57 57 57 56 54 55 56
54 57 60 61 59 58 58 58 58 58 59 60 59 57 59 59 59 60 61 61 61 61 61 60 59 58 59 58 58 59 60 60 59 59 59 59 59 59 59 60 60 62 61 59
60 61 60 59 59 60 60 58 56 57 57 59 57 56 54 56 56 56 57 60 60 59 58 59 58 57 57 57 57 58 60 61 63 64 64 64 64 64 64 64 63 58 57 58
53 52 53 54 54 56 58 57 58 60 61 61 59 56 50 50 54 58 62 65 65 65 64 64 64 64 63 63 63 63 64 64 62 62 61 60 60 58 57 58 61 62 63 63
48 49 47 49 50 53 58 54 56 57 55 55 54 50 54 57 59 60 60 60 61 63 65 66 66 66 65 64 62 59 58 59 60 61 62 62 62 63 64 66 65 65 68 69
50 51 48 49 52 57 56 56 56 59 57 56 54 54 54 56 57 58 57 58 59 60 62 64 63 63 63 63 63 64 66 66 66 66 67 68 70 70 71 72 75 76 77 78
53 54 56 56 59 59 58 59 58 56 56 55 54 56 56 57 59 61 62 63 64 66 68 68 68 69 69 70 70 71 73 75 76 77 78 79 79 79 79 80 81 81 81 81
66 64 62 62 61 62 58 60 63 65 64 60 59 59 60 62 65 66 68 69 71 73 74 74 75 76 77 78 79 81 81 81 80 79 80 80 81 81 82 81 81 81 81 80
65 65 65 64 66 69 65 66 68 70 66 64 63 64 65 67 68 69 71 71 72 73 76 79 81 81 81 82 83 83 82 81 81 80 80 80 80 79 78 78 77 77 78 79
59 58 58 58 59 66 68 64 62 60 59 64 65 64 63 64 65 67 70 71 72 72 72 74 75 75 76 77 77 77 77 77 78 79 79 80 80 81 82 83 84 84 84 84
52 53 54 55 55 54 57 59 62 62 63 62 63 64 64 64 65 67 68 69 70 71 72 73 73 73 74 75 77 77 78 80 81 83 84 85 86 87 87 88 88 88 88 87
51 52 53 53 54 55 56 60 62 63 63 64 64 65 65 66 66 66 67 68 70 72 73 74 76 77 77 78 80 82 84 85 87 88 88 89 89 88 88 87 85 83 81 78
58 58 58 59 58 60 61 64 66 68 70 70 71 71 72 74 72 74 74 75 77 77 78 80 81 83 83 84 84 86 86 86 85 85 84 82 81 79 78 77 76 75 75 74
59 60 62 63 64 67 69 72 73 74 74 75 76 78 80 82 82 82 81 82 84 86 87 88 88 88 87 86 84 83 84 83 82 80 79 78 78 77 77 76 76 74 70 66
Wind_Direction
213 215 218 219 220 222 225 228 232 238 240 243 242 241 246 244 245 245 246 247 245 243 246 239 238 241 243 247 254 261 262 268 275 278 283 287 292 292 294 303 308 312 315 313
217 217 218 220 224 227 230 233 237 240 244 245 247 243 246 250 245 246 250 250 249 245 241 240 239 240 241 247 255 261 270 279 277 276 278 283 290 289 291 293 297 302 305 309
219 220 222 224 226 229 231 233 238 242 244 247 248 244 246 249 252 248 247 249 251 247 247 245 242 240 244 248 252 258 269 275 278 281 281 281 282 288 291 292 296 297 300 303
219 220 223 225 227 228 230 234 238 243 246 248 249 247 242 245 248 249 247 247 249 249 246 245 244 243 244 249 256 260 262 267 269 274 278 282 282 286 288 293 296 294 296 299
223 224 226 226 229 231 232 233 237 242 245 248 249 254 235 242 244 247 248 247 248 247 246 247 250 250 250 252 254 258 261 265 268 273 275 278 282 283 286 289 291 294 294 296
224 225 225 227 229 230 233 236 238 241 245 249 248 253 244 240 237 243 249 251 248 247 248 247 247 250 253 255 257 259 262 265 268 272 275 278 282 283 284 286 288 290 292 292
231 231 231 231 232 233 234 237 241 244 245 249 249 250 256 252 246 246 244 248 252 248 245 249 253 253 255 257 259 260 262 266 270 272 275 277 279 280 281 283 284 286 288 289
234 234 236 237 238 239 241 241 243 245 246 249 252 251 253 259 253 252 250 246 246 249 252 253 254 255 257 259 260 262 265 267 270 273 275 275 276 277 279 280 281 281 283 285
239 238 238 237 237 238 240 242 244 246 248 249 252 254 256 260 265 259 255 254 254 252 250 251 254 257 258 259 261 263 265 266 267 268 271 274 275 276 276 278 278 282 285 284
237 238 239 239 240 241 241 241 242 244 247 250 253 254 257 260 262 266 266 261 260 259 256 255 256 257 258 259 261 263 264 266 268 269 271 272 272 274 276 277 278 279 279 280
236 238 239 239 241 243 244 244 246 247 248 251 253 255 258 260 260 263 267 267 266 263 262 263 264 262 261 262 264 266 267 268 269 270 271 273 275 275 276 274 274 276 280 282
238 238 239 241 243 243 244 245 246 246 247 249 252 254 257 259 261 263 263 266 268 268 266 266 268 270 271 272 271 272 273 275 275 276 276 276 277 278 279 279 280 281 281 281
234 236 238 238 239 242 244 246 247 249 248 249 251 255 257 260 263 264 267 269 270 272 274 274 272 270 268 269 271 272 272 274 276 276 276 278 280 281 281 282 282 282 284 284
233 235 239 243 247 249 249 251 250 251 252 254 254 256 257 261 262 264 266 268 269 270 270 272 274 275 276 275 274 274 274 274 275 276 276 276 277 278 278 279 280 283 284 283
236 239 241 243 245 245 245 246 246 249 252 251 254 253 257 261 264 265 263 265 266 267 268 268 269 269 271 272 273 274 274 275 276 277 278 278 279 279 279 278 278 279 282 284
236 238 241 244 245 248 248 248 249 250 251 253 255 257 256 256 262 263 264 264 265 267 269 270 270 270 271 273 275 276 278 279 281 281 282 282 283 284 283 284 286 287 287 287
237 237 242 246 246 247 249 251 253 253 254 256 258 260 257 257 259 261 264 266 267 270 271 272 273 274 275 275 276 276 277 278 279 280 281 282 282 283 282 282 283 286 289 290
223 241 239 242 245 245 251 254 255 256 255 255 256 257 258 261 263 264 265 265 264 265 267 269 270 271 272 274 275 277 279 280 280 280 281 281 281 281 281 281 282 284 286 286
228 231 233 238 245 250 251 253 254 254 254 257 259 259 260 262 263 265 266 266 267 267 267 267 268 269 271 274 276 279 282 283 284 284 285 285 285 285 286 286 287 286 286 285
239 238 243 244 243 247 251 252 256 257 258 261 261 259 260 262 264 267 269 269 268 266 266 267 268 270 271 274 276 280 282 282 283 283 283 284 284 284 284 284 284 284 284 284
250 251 252 254 255 256 256 258 259 260 261 261 263 261 261 261 262 264 266 268 270 271 272 272 273 275 277 278 279 279 280 281 282 282 282 282 282 282 283 283 283 282 283 283
248 249 250 252 253 256 259 260 263 264 261 261 261 261 262 264 266 266 267 268 269 271 272 273 275 276 277 278 278 279 279 280 280 280 281 282 282 282 282 283 283 283 283 282
245 248 252 253 258 258 257 258 259 260 261 262 263 264 264 264 264 266 267 268 270 272 273 274 275 276 278 279 280 280 281 282 282 283 283 283 284 284 284 284 284 284 284 283
245 248 250 254 256 259 260 261 263 265 266 267 268 268 268 269 270 270 271 272 273 273 274 275 275 276 276 277 278 279 280 281 282 282 283 283 283 283 283 282 283 285 286 286
247 249 252 254 257 259 261 262 264 266 267 268 269 270 272 273 273 273 272 273 274 275 275 275 276 276 278 279 280 282 282 282 281 281 282 282 283 284 284 285 285 286 287 288
251 256 258 260 259 260 260 262 264 266 268 270 272 274 275 276 277 276 277 277 276 277 278 278 278 279 279 280 280 279 279 280 280 280 281 282 282 283 284 285 287 287 288 288
Height
5794 5799 5806 5810 5812 5814 5817 5822 5826 5828 5830 5833 5835 5840 5841 5843 5847 5847 5849 5852 5853 5853 5853 5855 5855 5857 5857 5857 5857 5858 5857 5856 5857 5856 5855 5855 5854 5853 5851 5850 5848 5846 5844 5842
5790 5796 5797 5801 5806 5810 5813 5817 5820 5823 5825 5827 5830 5835 5837 5837 5842 5844 5846 5846 5848 5849 5848 5850 5852 5853 5853 5853 5852 5852 5852 5852 5852 5853 5851 5851 5850 5848 5847 5845 5843 5841 5839 5837
5784 5790 5792 5797 5801 5805 5809 5812 5815 5817 5819 5822 5825 5830 5831 5833 5836 5839 5841 5841 5842 5845 5845 5846 5848 5849 5849 5849 5848 5848 5847 5847 5846 5846 5845 5845 5845 5843 5841 5839 5838 5836 5833 5830
5776 5781 5786 5791 5795 5799 5802 5806 5809 5811 5812 5815 5819 5823 5827 5828 5830 5832 5832 5836 5838 5839 5840 5840 5841 5843 5844 5843 5844 5844 5844 5842 5841 5840 5839 5838 5838 5837 5835 5834 5832 5829 5826 5824
5772 5776 5781 5785 5789 5793 5796 5799 5801 5803 5806 5810 5814 5815 5823 5823 5824 5824 5826 5828 5831 5832 5834 5835 5835 5836 5837 5837 5837 5838 5837 5836 5836 5835 5834 5832 5831 5830 5829 5827 5825 5823 5820 5817
5762 5767 5772 5777 5781 5785 5789 5792 5794 5797 5800 5804 5807 5809 5815 5817 5818 5818 5819 5822 5824 5825 5826 5827 5827 5828 5829 5830 5831 5831 5830 5829 5828 5827 5827 5825 5825 5824 5822 5819 5816 5814 5811 5808
5756 5761 5766 5771 5774 5777 5781 5784 5787 5792 5793 5796 5800 5803 5806 5807 5811 5813 5813 5814 5816 5817 5818 5819 5819 5820 5821 5821 5822 5822 5821 5820 5820 5819 5818 5818 5816 5814 5812 5810 5807 5805 5802 5800
5748 5754 5760 5764 5767 5772 5774 5777 5781 5782 5785 5789 5791 5795 5798 5796 5802 5803 5804 5807 5808 5809 5811 5812 5812 5812 5812 5812 5812 5812 5812 5813 5812 5811 5809 5807 5805 5803 5801 5799 5798 5795 5793 5790
5739 5744 5749 5753 5757 5760 5765 5769 5772 5774 5777 5780 5783 5788 5790 5788 5787 5792 5796 5798 5800 5802 5802 5802 5802 5802 5802 5802 5802 5802 5802 5802 5801 5800 5799 5797 5795 5793 5791 5789 5787 5784 5781 5778
5728 5732 5738 5742 5746 5749 5755 5760 5761 5764 5768 5771 5775 5779 5780 5779 5780 5779 5785 5789 5790 5790 5791 5792 5792 5792 5792 5792 5792 5792 5791 5790 5789 5788 5787 5785 5783 5781 5779 5777 5774 5771 5768 5765
5716 5723 5728 5730 5735 5742 5745 5749 5752 5755 5758 5761 5766 5770 5770 5770 5771 5774 5772 5773 5777 5780 5780 5780 5780 5781 5782 5782 5781 5780 5779 5778 5777 5776 5775 5773 5770 5769 5767 5765 5762 5759 5757 5753
5705 5708 5713 5720 5724 5728 5733 5737 5740 5740 5748 5751 5755 5759 5759 5759 5759 5760 5762 5762 5762 5764 5767 5769 5770 5770 5769 5768 5768 5767 5767 5766 5764 5763 5762 5759 5756 5754 5752 5750 5748 5746 5744 5740
5691 5692 5697 5702 5709 5714 5718 5725 5729 5732 5734 5740 5742 5750 5746 5746 5747 5748 5750 5749 5750 5750 5752 5752 5753 5755 5756 5756 5755 5755 5754 5753 5752 5750 5749 5747 5744 5741 5740 5737 5735 5732 5730 5727
5677 5682 5686 5692 5701 5705 5709 5714 5717 5720 5721 5731 5733 5738 5737 5735 5737 5737 5736 5736 5736 5737 5738 5737 5737 5737 5738 5740 5740 5740 5739 5739 5737 5736 5734 5733 5731 5728 5726 5723 5720 5718 5715 5713
5666 5671 5675 5681 5685 5689 5695 5699 5702 5705 5713 5711 5726 5722 5725 5726 5723 5723 5723 5722 5722 5723 5724 5725 5725 5725 5724 5724 5724 5724 5723 5722 5722 5720 5718 5717 5715 5713 5710 5708 5706 5703 5701 5698
5656 5661 5665 5669 5672 5676 5680 5687 5691 5694 5697 5700 5706 5711 5717 5714 5709 5709 5707 5707 5709 5709 5709 5710 5711 5710 5710 5709 5709 5708 5707 5705 5704 5702 5700 5699 5697 5695 5692 5690 5688 5686 5683 5680
5646 5651 5656 5658 5662 5665 5667 5677 5679 5682 5686 5690 5693 5702 5697 5695 5694 5696 5697 5697 5696 5695 5694 5694 5694 5694 5693 5693 5694 5694 5692 5691 5690 5688 5685 5684 5682 5679 5675 5673 5670 5667 5665 5662
5634 5639 5643 5645 5647 5647 5662 5664 5669 5669 5672 5673 5681 5682 5684 5683 5681 5681 5683 5683 5683 5683 5683 5682 5681 5680 5679 5679 5679 5678 5675 5674 5672 5670 5668 5664 5663 5662 5659 5656 5652 5649 5645 5642
5623 5628 5630 5631 5634 5642 5651 5653 5655 5656 5660 5662 5668 5667 5668 5669 5667 5666 5666 5667 5668 5669 5668 5668 5667 5666 5664 5662 5661 5660 5656 5654 5651 5649 5646 5643 5640 5638 5635 5631 5629 5626 5623 5620
5611 5613 5616 5618 5619 5627 5642 5640 5639 5639 5644 5654 5652 5653 5654 5654 5653 5653 5650 5651 5651 5652 5652 5651 5650 5649 5646 5645 5644 5642 5637 5634 5632 5629 5627 5622 5619 5616 5613 5609 5606 5602 5599 5596
5597 5600 5602 5603 5603 5614 5628 5626 5623 5621 5641 5632 5633 5636 5638 5639 5638 5637 5634 5635 5634 5633 5632 5632 5632 5631 5628 5626 5626 5623 5618 5613 5611 5608 5605 5601 5597 5594 5591 5588 5585 5581 5577 5573
5582 5585 5589 5590 5590 5598 5612 5604 5606 5610 5611 5614 5615 5616 5618 5619 5619 5619 5619 5618 5616 5614 5613 5611 5611 5610 5607 5604 5603 5601 5597 5593 5590 5586 5582 5579 5575 5572 5568 5565 5561 5558 5554 5550
5569 5572 5576 5579 5583 5588 5590 5587 5585 5588 5590 5594 5598 5599 5601 5603 5604 5604 5603 5601 5600 5598 5597 5595 5593 5592 5589 5585 5581 5579 5574 5571 5568 5564 5560 5555 5551 5547 5543 5539 5536 5532 5528 5524
5555 5559 5561 5565 5571 5572 5573 5571 5568 5571 5574 5577 5580 5582 5583 5585 5587 5588 5587 5585 5582 5580 5578 5576 5574 5572 5571 5566 5562 5557 5553 5548 5544 5539 5535 5530 5527 5522 5518 5514 5510 5506 5502 5499
5544 5546 5551 5551 5556 5557 5556 5554 5555 5554 5555 5557 5560 5563 5563 5563 5568 5567 5568 5567 5563 5561 5558 5556 5553 5550 5548 5544 5541 5534 5528 5523 5520 5515 5510 5506 5501 5498 5494 5489 5486 5484 5480 5477
5535 5537 5536 5538 5540 5536 5535 5533 5537 5539 5541 5543 5543 5543 5541 5540 5542 5542 5545 5544 5540 5537 5533 5528 5525 5523 5522 5518 5516 5511 5502 5499 5495 5492 5488 5483 5479 5475 5472 5469 5466 5463 5460 5456